,,,PA_Meas_PMT16A,,PR_Meas_QMR101_102,,RH_Meas_QMH101,,SR_Meas_QMS101,,TA_Meas_QMH101,,GenWind,,GenWind,
date,time,status,PA,status,PR,status,RH,status,SR,status,TA,status,DirAvg,status,SpdAvg,
2011-08-01, 00:00:04,VALID,1004.5,VALID,0,INVALID,163.792,VALID,0,VALID,23.2913,VALID,19,VALID,0,
2011-08-01, 00:01:04,VALID,1004.51,VALID,0,INVALID,163.784,VALID,0,VALID,23.3125,VALID,19,VALID,0,
2011-08-01, 00:02:04,VALID,1004.54,VALID,0,INVALID,163.784,VALID,0.100563,VALID,23.2913,VALID,19,VALID,0,
2011-08-01, 00:03:04,VALID,1004.52,VALID,0,INVALID,163.83,VALID,0,VALID,23.3125,VALID,19,VALID,0,
2011-08-01, 00:04:04,VALID,1004.55,VALID,0,INVALID,163.769,VALID,0.100563,VALID,23.3125,VALID,19,VALID,0,
2011-08-01, 00:05:04,VALID,1004.53,VALID,0,INVALID,163.777,VALID,0,VALID,23.332,VALID,19,VALID,0,
2011-08-01, 00:06:04,VALID,1004.53,VALID,0,INVALID,163.845,VALID,0,VALID,23.2913,VALID,19,VALID,0,
2011-08-01, 00:07:04,VALID,1004.51,VALID,0,INVALID,163.807,VALID,0,VALID,23.3125,VALID,19,VALID,0,
2011-08-01, 00:08:04,VALID,1004.52,VALID,0,INVALID,163.777,VALID,0.100563,VALID,23.2913,VALID,19,VALID,0,
2011-08-01, 00:09:04,VALID,1004.49,VALID,0,INVALID,163.815,VALID,0,VALID,23.3125,VALID,19,VALID,0,
2011-08-01, 00:10:04,VALID,1004.48,VALID,0,INVALID,163.784,VALID,0.100563,VALID,23.332,VALID,19,VALID,0,
2011-08-01, 00:11:04,VALID,1004.49,VALID,0,INVALID,163.8,VALID,0,VALID,23.3337,VALID,19,VALID,0,
2011-08-01, 00:12:04,VALID,1004.45,VALID,0,INVALID,163.792,VALID,0,VALID,23.3125,VALID,19,VALID,0,
2011-08-01, 00:13:04,VALID,1004.48,VALID,0,INVALID,163.853,VALID,0,VALID,23.2913,VALID,19,VALID,0,
2011-08-01, 00:14:04,VALID,1004.49,VALID,0,INVALID,163.815,VALID,0,VALID,23.2913,VALID,19,VALID,0,
2011-08-01, 00:15:04,VALID,1004.47,VALID,0,INVALID,163.784,VALID,0,VALID,23.2931,VALID,18,VALID,0,
2011-08-01, 00:16:04,VALID,1004.46,VALID,0,INVALID,163.8,VALID,0,VALID,23.3143,VALID,15,VALID,0,
2011-08-01, 00:17:04,VALID,1004.46,VALID,0,INVALID,163.807,VALID,0,VALID,23.3337,VALID,15,VALID,0,
2011-08-01, 00:18:04,VALID,1004.46,VALID,0,INVALID,163.853,VALID,0,VALID,23.2931,VALID,11,VALID,0,
2011-08-01, 00:19:04,VALID,1004.44,VALID,0,INVALID,163.792,VALID,0,VALID,23.3355,VALID,11,VALID,0,
2011-08-01, 00:20:04,VALID,1004.46,VALID,0,INVALID,163.792,VALID,0,VALID,23.3337,VALID,11,VALID,0,
2011-08-01, 00:21:04,VALID,1004.46,VALID,0,INVALID,163.777,VALID,0,VALID,23.3532,VALID,11,VALID,0,
2011-08-01, 00:22:04,VALID,1004.43,VALID,0,INVALID,163.777,VALID,0,VALID,23.332,VALID,11,VALID,0,
2011-08-01, 00:23:04,VALID,1004.44,VALID,0,INVALID,163.792,VALID,0,VALID,23.3727,VALID,11,VALID,0,
2011-08-01, 00:24:04,VALID,1004.45,VALID,0,INVALID,163.792,VALID,0,VALID,23.3514,VALID,11,VALID,0,
2011-08-01, 00:25:04,VALID,1004.39,VALID,0,INVALID,163.754,VALID,0,VALID,23.3921,VALID,11,VALID,0,
2011-08-01, 00:26:04,VALID,1004.38,VALID,0,INVALID,163.792,VALID,0,VALID,23.3514,VALID,11,VALID,0,
2011-08-01, 00:27:04,VALID,1004.35,VALID,0,INVALID,163.8,VALID,0,VALID,23.3514,VALID,11,VALID,0,
2011-08-01, 00:28:04,VALID,1004.33,VALID,0,INVALID,163.769,VALID,0,VALID,23.3514,VALID,11,VALID,0,
2011-08-01, 00:29:04,VALID,1004.34,VALID,0,INVALID,163.769,VALID,0,VALID,23.3727,VALID,11,VALID,0,
2011-08-01, 00:30:04,VALID,1004.32,VALID,0,INVALID,163.8,VALID,0,VALID,23.3904,VALID,11,VALID,0,
2011-08-01, 00:31:04,VALID,1004.28,VALID,0,INVALID,163.83,VALID,0,VALID,23.3904,VALID,11,VALID,0,
2011-08-01, 00:32:04,VALID,1004.27,VALID,0,INVALID,163.784,VALID,0,VALID,23.3904,VALID,11,VALID,0,
2011-08-01, 00:33:04,VALID,1004.29,VALID,0,INVALID,163.8,VALID,0,VALID,23.3709,VALID,11,VALID,0,
2011-08-01, 00:34:04,VALID,1004.29,VALID,0,INVALID,163.792,VALID,0,VALID,23.3497,VALID,11,VALID,0,
2011-08-01, 00:35:04,VALID,1004.3,VALID,0,INVALID,163.8,VALID,0,VALID,23.3709,VALID,11,VALID,0,
2011-08-01, 00:36:04,VALID,1004.28,VALID,0,INVALID,163.784,VALID,0.100563,VALID,23.3497,VALID,11,VALID,0,
2011-08-01, 00:37:04,VALID,1004.29,VALID,0,INVALID,163.777,VALID,0,VALID,23.3709,VALID,11,VALID,0,
2011-08-01, 00:38:04,VALID,1004.29,VALID,0,INVALID,163.784,VALID,0.100563,VALID,23.3709,VALID,11,VALID,0,
2011-08-01, 00:39:04,VALID,1004.27,VALID,0,INVALID,163.861,VALID,0.100563,VALID,23.3709,VALID,11,VALID,0,
2011-08-01, 00:40:04,VALID,1004.25,VALID,0,INVALID,163.762,VALID,0,VALID,23.3709,VALID,11,VALID,0,
2011-08-01, 00:41:04,VALID,1004.25,VALID,0,INVALID,163.784,VALID,0.100563,VALID,23.3709,VALID,11,VALID,0,
2011-08-01, 00:42:04,VALID,1004.26,VALID,0,INVALID,163.777,VALID,0,VALID,23.3497,VALID,11,VALID,0,
2011-08-01, 00:43:04,VALID,1004.25,VALID,0,INVALID,163.815,VALID,0.100563,VALID,23.3514,VALID,11,VALID,0,
2011-08-01, 00:44:04,VALID,1004.25,VALID,0,INVALID,163.868,VALID,0.100563,VALID,23.332,VALID,11,VALID,0,
2011-08-01, 00:45:04,VALID,1004.25,VALID,0,INVALID,163.792,VALID,0.100563,VALID,23.332,VALID,11,VALID,0,
2011-08-01, 00:46:04,VALID,1004.25,VALID,0,INVALID,163.8,VALID,0.100563,VALID,23.3125,VALID,11,VALID,0,
2011-08-01, 00:47:04,VALID,1004.25,VALID,0,INVALID,163.769,VALID,0.100563,VALID,23.3125,VALID,11,VALID,0,
2011-08-01, 00:48:04,VALID,1004.22,VALID,0,INVALID,163.815,VALID,0.100563,VALID,23.2913,VALID,11,VALID,0,
2011-08-01, 00:49:04,VALID,1004.23,VALID,0,INVALID,163.784,VALID,0.100563,VALID,23.2931,VALID,11,VALID,0,
2011-08-01, 00:50:04,VALID,1004.21,VALID,0,INVALID,163.792,VALID,0.100563,VALID,23.2931,VALID,11,VALID,0,
2011-08-01, 00:51:04,VALID,1004.22,VALID,0,INVALID,163.845,VALID,0,VALID,23.2931,VALID,11,VALID,0,
2011-08-01, 00:52:04,VALID,1004.17,VALID,0,INVALID,163.777,VALID,0,VALID,23.2931,VALID,11,VALID,0,
2011-08-01, 00:53:04,VALID,1004.17,VALID,0,INVALID,163.792,VALID,0,VALID,23.2736,VALID,11,VALID,0,
2011-08-01, 00:54:04,VALID,1004.15,VALID,0,INVALID,163.792,VALID,0,VALID,23.2736,VALID,11,VALID,0,
2011-08-01, 00:55:04,VALID,1004.15,VALID,0,INVALID,163.815,VALID,0.100563,VALID,23.2329,VALID,11,VALID,0,
2011-08-01, 00:56:04,VALID,1004.16,VALID,0,INVALID,163.83,VALID,0.100563,VALID,23.2329,VALID,11,VALID,0,
2011-08-01, 00:57:04,VALID,1004.14,VALID,0,INVALID,163.83,VALID,0.100563,VALID,23.2329,VALID,11,VALID,0,
2011-08-01, 00:58:04,VALID,1004.16,VALID,0,INVALID,163.8,VALID,0.100563,VALID,23.2524,VALID,11,VALID,0,
2011-08-01, 00:59:04,VALID,1004.15,VALID,0,INVALID,163.792,VALID,0.100563,VALID,23.2329,VALID,11,VALID,0,
2011-08-01, 01:00:04,VALID,1004.16,VALID,0,INVALID,163.845,VALID,0,VALID,23.2329,VALID,11,VALID,0,
2011-08-01, 01:01:04,VALID,1004.17,VALID,0,INVALID,163.792,VALID,0,VALID,23.2541,VALID,11,VALID,0,
2011-08-01, 01:02:04,VALID,1004.18,VALID,0,INVALID,163.777,VALID,0,VALID,23.2329,VALID,11,VALID,0,
2011-08-01, 01:03:04,VALID,1004.19,VALID,0,INVALID,163.83,VALID,0,VALID,23.2541,VALID,11,VALID,0,
2011-08-01, 01:04:04,VALID,1004.16,VALID,0,INVALID,163.792,VALID,0,VALID,23.2736,VALID,11,VALID,0,
2011-08-01, 01:05:04,VALID,1004.13,VALID,0,INVALID,163.792,VALID,0,VALID,23.2541,VALID,11,VALID,0,
2011-08-01, 01:06:04,VALID,1004.13,VALID,0,INVALID,163.792,VALID,0,VALID,23.2329,VALID,10,VALID,0,
2011-08-01, 01:07:04,VALID,1004.08,VALID,0,INVALID,163.838,VALID,0.100563,VALID,23.2736,VALID,10,VALID,0,
2011-08-01, 01:08:04,VALID,1004.08,VALID,0,INVALID,163.792,VALID,0,VALID,23.2948,VALID,10,VALID,0,
2011-08-01, 01:09:04,VALID,1004.1,VALID,0,INVALID,163.784,VALID,0.100563,VALID,23.2524,VALID,10,VALID,0,
2011-08-01, 01:10:04,VALID,1004.11,VALID,0,INVALID,163.792,VALID,0,VALID,23.2931,VALID,10,VALID,0,
2011-08-01, 01:11:04,VALID,1004.09,VALID,0,INVALID,163.823,VALID,0.100563,VALID,23.2931,VALID,10,VALID,0,
2011-08-01, 01:12:04,VALID,1004.08,VALID,0,INVALID,163.784,VALID,0.100563,VALID,23.3125,VALID,10,VALID,0,
2011-08-01, 01:13:04,VALID,1004.08,VALID,0,INVALID,163.815,VALID,0.100563,VALID,23.2913,VALID,10,VALID,0,
2011-08-01, 01:14:04,VALID,1004.08,VALID,0,INVALID,163.792,VALID,0,VALID,23.3125,VALID,10,VALID,0,
2011-08-01, 01:15:04,VALID,1004.07,VALID,0,INVALID,163.777,VALID,0,VALID,23.3125,VALID,10,VALID,0,
2011-08-01, 01:16:04,VALID,1004.04,VALID,0,INVALID,163.777,VALID,0,VALID,23.3532,VALID,10,VALID,0,
2011-08-01, 01:17:04,VALID,1004.03,VALID,0,INVALID,163.769,VALID,0,VALID,23.2913,VALID,10,VALID,0,
2011-08-01, 01:18:04,VALID,1004.01,VALID,0,INVALID,163.815,VALID,0,VALID,23.3337,VALID,10,VALID,0,
2011-08-01, 01:19:04,VALID,1004.01,VALID,0,INVALID,163.861,VALID,0,VALID,23.3125,VALID,10,VALID,0,
2011-08-01, 01:20:04,VALID,1004,VALID,0,INVALID,163.769,VALID,0,VALID,23.3337,VALID,10,VALID,0,
2011-08-01, 01:21:04,VALID,1003.99,VALID,0,INVALID,163.838,VALID,0,VALID,23.3337,VALID,10,VALID,0,
2011-08-01, 01:22:04,VALID,1004,VALID,0,INVALID,163.845,VALID,0,VALID,23.3143,VALID,10,VALID,0,
2011-08-01, 01:23:04,VALID,1003.98,VALID,0,INVALID,163.769,VALID,0.100563,VALID,23.2913,VALID,10,VALID,0,
2011-08-01, 01:24:04,VALID,1003.96,VALID,0,INVALID,163.792,VALID,0.100563,VALID,23.3125,VALID,10,VALID,0,
2011-08-01, 01:25:04,VALID,1003.95,VALID,0,INVALID,163.754,VALID,0.100563,VALID,23.2913,VALID,10,VALID,0,
2011-08-01, 01:26:04,VALID,1003.95,VALID,0,INVALID,163.784,VALID,0,VALID,23.3143,VALID,10,VALID,0,
2011-08-01, 01:27:04,VALID,1003.92,VALID,0,INVALID,163.784,VALID,0,VALID,23.2931,VALID,10,VALID,0,
2011-08-01, 01:28:04,VALID,1003.9,VALID,0,INVALID,163.838,VALID,0,VALID,23.2931,VALID,10,VALID,0,
2011-08-01, 01:29:04,VALID,1003.9,VALID,0,INVALID,163.784,VALID,0,VALID,23.2931,VALID,10,VALID,0,
2011-08-01, 01:30:04,VALID,1003.89,VALID,0,INVALID,163.769,VALID,0,VALID,23.2931,VALID,10,VALID,0,
2011-08-01, 01:31:04,VALID,1003.84,VALID,0,INVALID,163.777,VALID,0.100563,VALID,23.2931,VALID,10,VALID,0,
2011-08-01, 01:32:04,VALID,1003.85,VALID,0,INVALID,163.784,VALID,0,VALID,23.2736,VALID,10,VALID,0,
2011-08-01, 01:33:04,VALID,1003.82,VALID,0,INVALID,163.784,VALID,0.100563,VALID,23.2736,VALID,7,VALID,0,
2011-08-01, 01:34:04,VALID,1003.81,VALID,0,INVALID,163.792,VALID,0.100563,VALID,23.2524,VALID,5,VALID,0,
2011-08-01, 01:35:04,VALID,1003.78,VALID,0,INVALID,163.8,VALID,0.100563,VALID,23.2931,VALID,5,VALID,0,
2011-08-01, 01:36:04,VALID,1003.77,VALID,0,INVALID,163.815,VALID,0.100563,VALID,23.2524,VALID,4,VALID,0,
2011-08-01, 01:37:04,VALID,1003.76,VALID,0,INVALID,163.792,VALID,0.100563,VALID,23.2931,VALID,4,VALID,0,
2011-08-01, 01:38:04,VALID,1003.75,VALID,0,INVALID,163.784,VALID,0.100563,VALID,23.2931,VALID,4,VALID,0,
2011-08-01, 01:39:04,VALID,1003.77,VALID,0,INVALID,163.838,VALID,0.100563,VALID,23.3125,VALID,4,VALID,0,
2011-08-01, 01:40:04,VALID,1003.77,VALID,0,INVALID,163.838,VALID,0.100563,VALID,23.3125,VALID,4,VALID,0,
2011-08-01, 01:41:04,VALID,1003.79,VALID,0,INVALID,163.769,VALID,0.100563,VALID,23.3107,VALID,4,VALID,0,
2011-08-01, 01:42:04,VALID,1003.78,VALID,0,INVALID,163.784,VALID,0.100563,VALID,23.332,VALID,4,VALID,0,
2011-08-01, 01:43:04,VALID,1003.8,VALID,0,INVALID,163.8,VALID,0,VALID,23.332,VALID,4,VALID,0,
2011-08-01, 01:44:04,VALID,1003.79,VALID,0,INVALID,163.823,VALID,0.100563,VALID,23.332,VALID,4,VALID,0,
2011-08-01, 01:45:04,VALID,1003.76,VALID,0,INVALID,163.762,VALID,0,VALID,23.3337,VALID,4,VALID,0,
2011-08-01, 01:46:04,VALID,1003.79,VALID,0,INVALID,163.777,VALID,0,VALID,23.3337,VALID,4,VALID,0,
2011-08-01, 01:47:04,VALID,1003.8,VALID,0,INVALID,163.784,VALID,0,VALID,23.3532,VALID,4,VALID,0,
2011-08-01, 01:48:04,VALID,1003.8,VALID,0,INVALID,163.762,VALID,0,VALID,23.3107,VALID,4,VALID,0,
2011-08-01, 01:49:04,VALID,1003.84,VALID,0,INVALID,163.777,VALID,0,VALID,23.3532,VALID,4,VALID,0,
2011-08-01, 01:50:04,VALID,1003.81,VALID,0,INVALID,163.8,VALID,0,VALID,23.3337,VALID,4,VALID,0,
2011-08-01, 01:51:04,VALID,1003.86,VALID,0,INVALID,163.762,VALID,0,VALID,23.3337,VALID,4,VALID,0,
2011-08-01, 01:52:04,VALID,1003.89,VALID,0,INVALID,163.815,VALID,0,VALID,23.2931,VALID,4,VALID,0,
2011-08-01, 01:53:04,VALID,1003.91,VALID,0,INVALID,163.777,VALID,0,VALID,23.3337,VALID,4,VALID,0,
2011-08-01, 01:54:05,VALID,1003.93,VALID,0,INVALID,163.8,VALID,0,VALID,23.332,VALID,4,VALID,0,
2011-08-01, 01:55:05,VALID,1003.9,VALID,0,INVALID,163.777,VALID,0,VALID,23.332,VALID,4,VALID,0,
2011-08-01, 01:56:05,VALID,1003.89,VALID,0,INVALID,163.868,VALID,0,VALID,23.3337,VALID,4,VALID,0,
2011-08-01, 01:57:05,VALID,1003.87,VALID,0,INVALID,163.8,VALID,0,VALID,23.3337,VALID,4,VALID,0,
2011-08-01, 01:58:05,VALID,1003.86,VALID,0,INVALID,163.769,VALID,0,VALID,23.3337,VALID,4,VALID,0,
2011-08-01, 01:59:05,VALID,1003.83,VALID,0,INVALID,163.784,VALID,0,VALID,23.3337,VALID,4,VALID,0,
2011-08-01, 02:00:05,VALID,1003.82,VALID,0,INVALID,163.769,VALID,0.100563,VALID,23.3514,VALID,4,VALID,0,
2011-08-01, 02:01:05,VALID,1003.81,VALID,0,INVALID,163.777,VALID,0.100563,VALID,23.3514,VALID,4,VALID,0,
2011-08-01, 02:02:05,VALID,1003.82,VALID,0,INVALID,163.807,VALID,0.100563,VALID,23.3514,VALID,4,VALID,0,
2011-08-01, 02:03:05,VALID,1003.8,VALID,0,INVALID,163.784,VALID,0.100563,VALID,23.3302,VALID,4,VALID,0,
2011-08-01, 02:04:05,VALID,1003.83,VALID,0,INVALID,163.83,VALID,0.100563,VALID,23.3514,VALID,4,VALID,0,
2011-08-01, 02:05:05,VALID,1003.84,VALID,0,INVALID,163.777,VALID,0,VALID,23.332,VALID,4,VALID,0,
2011-08-01, 02:06:05,VALID,1003.83,VALID,0,INVALID,163.769,VALID,0,VALID,23.3514,VALID,4,VALID,0,
2011-08-01, 02:07:05,VALID,1003.88,VALID,0,INVALID,163.815,VALID,0,VALID,23.332,VALID,4,VALID,0,
2011-08-01, 02:08:05,VALID,1003.83,VALID,0,INVALID,163.83,VALID,0.100563,VALID,23.3514,VALID,4,VALID,0,
2011-08-01, 02:09:05,VALID,1003.85,VALID,0,INVALID,163.784,VALID,0.100563,VALID,23.3514,VALID,4,VALID,0,
2011-08-01, 02:10:05,VALID,1003.82,VALID,0,INVALID,163.861,VALID,0,VALID,23.3514,VALID,4,VALID,0,
2011-08-01, 02:11:05,VALID,1003.84,VALID,0,INVALID,163.777,VALID,0.100563,VALID,23.3514,VALID,4,VALID,0,
2011-08-01, 02:12:05,VALID,1003.81,VALID,0,INVALID,163.777,VALID,0.100563,VALID,23.2913,VALID,4,VALID,0,
2011-08-01, 02:13:05,VALID,1003.78,VALID,0,INVALID,163.792,VALID,0.100563,VALID,23.3125,VALID,4,VALID,0,
2011-08-01, 02:14:05,VALID,1003.78,VALID,0,INVALID,163.769,VALID,0,VALID,23.2736,VALID,4,VALID,0,
2011-08-01, 02:15:05,VALID,1003.76,VALID,0,INVALID,163.792,VALID,0,VALID,23.2736,VALID,2,VALID,0,
2011-08-01, 02:16:05,VALID,1003.78,VALID,0,INVALID,163.838,VALID,0,VALID,23.3143,VALID,2,VALID,0,
2011-08-01, 02:17:05,VALID,1003.83,VALID,0,INVALID,163.762,VALID,0,VALID,23.3125,VALID,2,VALID,0,
2011-08-01, 02:18:05,VALID,1003.84,VALID,0,INVALID,163.777,VALID,0,VALID,23.2718,VALID,2,VALID,0,
2011-08-01, 02:19:05,VALID,1003.87,VALID,0,INVALID,163.769,VALID,0,VALID,23.3125,VALID,2,VALID,0,
2011-08-01, 02:20:05,VALID,1003.88,VALID,0,INVALID,163.784,VALID,0,VALID,23.332,VALID,2,VALID,0,
2011-08-01, 02:21:05,VALID,1003.86,VALID,0,INVALID,163.777,VALID,0,VALID,23.3514,VALID,2,VALID,0,
2011-08-01, 02:22:05,VALID,1003.88,VALID,0,INVALID,163.784,VALID,0,VALID,23.332,VALID,2,VALID,0,
2011-08-01, 02:23:05,VALID,1003.87,VALID,0,INVALID,163.853,VALID,0,VALID,23.3514,VALID,2,VALID,0,
2011-08-01, 02:24:05,VALID,1003.85,VALID,0,INVALID,163.784,VALID,0,VALID,23.3514,VALID,2,VALID,0,
2011-08-01, 02:25:05,VALID,1003.89,VALID,0,INVALID,163.769,VALID,0,VALID,23.3514,VALID,2,VALID,0,
2011-08-01, 02:26:05,VALID,1003.86,VALID,0,INVALID,163.823,VALID,0,VALID,23.3921,VALID,2,VALID,0,
2011-08-01, 02:27:05,VALID,1003.83,VALID,0,INVALID,163.777,VALID,0,VALID,23.3921,VALID,2,VALID,0,
2011-08-01, 02:28:05,VALID,1003.84,VALID,0,INVALID,163.823,VALID,0,VALID,23.3904,VALID,2,VALID,0,
2011-08-01, 02:29:05,VALID,1003.82,VALID,0,INVALID,163.876,VALID,0,VALID,23.4116,VALID,2,VALID,0,
2011-08-01, 02:30:05,VALID,1003.81,VALID,0,INVALID,163.754,VALID,0,VALID,23.4116,VALID,2,VALID,0,
2011-08-01, 02:31:05,VALID,1003.81,VALID,0,INVALID,163.784,VALID,0,VALID,23.3904,VALID,2,VALID,0,
2011-08-01, 02:32:05,VALID,1003.77,VALID,0,INVALID,163.762,VALID,0,VALID,23.3904,VALID,2,VALID,0,
2011-08-01, 02:33:05,VALID,1003.8,VALID,0,INVALID,163.807,VALID,0,VALID,23.4098,VALID,2,VALID,0,
2011-08-01, 02:34:05,VALID,1003.82,VALID,0,INVALID,163.838,VALID,0.100563,VALID,23.4311,VALID,2,VALID,0,
2011-08-01, 02:35:05,VALID,1003.81,VALID,0,INVALID,163.853,VALID,0,VALID,23.4098,VALID,2,VALID,0,
2011-08-01, 02:36:05,VALID,1003.85,VALID,0,INVALID,163.868,VALID,0.100563,VALID,23.408,VALID,2,VALID,0,
2011-08-01, 02:37:05,VALID,1003.85,VALID,0,INVALID,163.853,VALID,0,VALID,23.4487,VALID,2,VALID,0,
2011-08-01, 02:38:05,VALID,1003.84,VALID,0,INVALID,163.769,VALID,0,VALID,23.4487,VALID,2,VALID,0,
2011-08-01, 02:39:05,VALID,1003.86,VALID,0,INVALID,163.784,VALID,0,VALID,23.4275,VALID,2,VALID,0,
2011-08-01, 02:40:05,VALID,1003.85,VALID,0,INVALID,163.739,VALID,0,VALID,23.4877,VALID,2,VALID,0,
2011-08-01, 02:41:05,VALID,1003.87,VALID,0,INVALID,163.769,VALID,0,VALID,23.5089,VALID,2,VALID,0,
2011-08-01, 02:42:05,VALID,1003.9,VALID,0,INVALID,163.754,VALID,0,VALID,23.4877,VALID,2,VALID,0,
2011-08-01, 02:43:05,VALID,1003.92,VALID,0,INVALID,163.754,VALID,0,VALID,23.5089,VALID,2,VALID,0,
2011-08-01, 02:44:05,VALID,1003.93,VALID,0,INVALID,163.784,VALID,0,VALID,23.5071,VALID,2,VALID,0,
2011-08-01, 02:45:05,VALID,1003.95,VALID,0,INVALID,163.8,VALID,0,VALID,23.5071,VALID,2,VALID,0,
2011-08-01, 02:46:05,VALID,1003.98,VALID,0,INVALID,163.823,VALID,0,VALID,23.4859,VALID,2,VALID,0,
2011-08-01, 02:47:05,VALID,1003.98,VALID,0,INVALID,163.746,VALID,0,VALID,23.5266,VALID,2,VALID,0,
2011-08-01, 02:48:05,VALID,1003.99,VALID,0,INVALID,163.815,VALID,0,VALID,23.5266,VALID,2,VALID,0,
2011-08-01, 02:49:05,VALID,1004.01,VALID,0,INVALID,163.853,VALID,0,VALID,23.5266,VALID,2,VALID,0,
2011-08-01, 02:50:05,VALID,1004.02,VALID,0,INVALID,163.838,VALID,0,VALID,23.5478,VALID,2,VALID,0,
2011-08-01, 02:51:05,VALID,1004.02,VALID,0,INVALID,163.777,VALID,0,VALID,23.546,VALID,2,VALID,0,
2011-08-01, 02:52:05,VALID,1004.01,VALID,0,INVALID,163.777,VALID,0,VALID,23.546,VALID,2,VALID,0,
2011-08-01, 02:53:05,VALID,1003.98,VALID,0,INVALID,163.754,VALID,0,VALID,23.546,VALID,2,VALID,0,
2011-08-01, 02:54:05,VALID,1003.98,VALID,0,INVALID,163.754,VALID,0,VALID,23.5655,VALID,2,VALID,0,
2011-08-01, 02:55:05,VALID,1004.04,VALID,0,INVALID,163.823,VALID,0,VALID,23.5868,VALID,2,VALID,0,
2011-08-01, 02:56:05,VALID,1004.03,VALID,0,INVALID,163.815,VALID,0,VALID,23.5868,VALID,2,VALID,0,
2011-08-01, 02:57:05,VALID,1004.03,VALID,0,INVALID,163.746,VALID,0,VALID,23.5637,VALID,2,VALID,0,
2011-08-01, 02:58:05,VALID,1004.02,VALID,0,INVALID,163.769,VALID,0,VALID,23.6062,VALID,2,VALID,0,
2011-08-01, 02:59:05,VALID,1004.02,VALID,0,INVALID,163.769,VALID,0,VALID,23.6044,VALID,2,VALID,0,
2011-08-01, 03:00:05,VALID,1003.99,VALID,0,INVALID,163.777,VALID,0,VALID,23.6044,VALID,2,VALID,0,
2011-08-01, 03:01:05,VALID,1003.96,VALID,0,INVALID,163.762,VALID,0,VALID,23.6239,VALID,2,VALID,0,
2011-08-01, 03:02:05,VALID,1003.96,VALID,0,INVALID,163.83,VALID,0,VALID,23.6026,VALID,2,VALID,0,
2011-08-01, 03:03:05,VALID,1003.92,VALID,0,INVALID,163.731,VALID,0.100563,VALID,23.6239,VALID,2,VALID,0,
2011-08-01, 03:04:05,VALID,1003.9,VALID,0,INVALID,163.762,VALID,0,VALID,23.6452,VALID,2,VALID,0,
2011-08-01, 03:05:05,VALID,1003.91,VALID,0,INVALID,163.746,VALID,0,VALID,23.6434,VALID,2,VALID,0,
2011-08-01, 03:06:05,VALID,1003.9,VALID,0,INVALID,163.754,VALID,0.100563,VALID,23.6628,VALID,2,VALID,0,
2011-08-01, 03:07:05,VALID,1003.91,VALID,0,INVALID,163.83,VALID,0,VALID,23.6434,VALID,2,VALID,0,
2011-08-01, 03:08:05,VALID,1003.92,VALID,0,INVALID,163.754,VALID,0.100563,VALID,23.6628,VALID,2,VALID,0,
2011-08-01, 03:09:05,VALID,1003.9,VALID,0,INVALID,163.792,VALID,0.100563,VALID,23.6628,VALID,2,VALID,0,
2011-08-01, 03:10:05,VALID,1003.89,VALID,0,INVALID,163.746,VALID,0,VALID,23.6434,VALID,2,VALID,0,
2011-08-01, 03:11:05,VALID,1003.89,VALID,0,INVALID,163.762,VALID,0,VALID,23.6628,VALID,2,VALID,0,
2011-08-01, 03:12:05,VALID,1003.86,VALID,0,INVALID,163.754,VALID,0,VALID,23.6628,VALID,2,VALID,0,
2011-08-01, 03:13:05,VALID,1003.83,VALID,0,INVALID,163.746,VALID,0,VALID,23.6416,VALID,2,VALID,0,
2011-08-01, 03:14:05,VALID,1003.82,VALID,0,INVALID,163.807,VALID,0,VALID,23.6434,VALID,2,VALID,0,
2011-08-01, 03:15:05,VALID,1003.83,VALID,0,INVALID,163.823,VALID,0.100563,VALID,23.6628,VALID,2,VALID,0,
2011-08-01, 03:16:05,VALID,1003.83,VALID,0,INVALID,163.754,VALID,0,VALID,23.6434,VALID,2,VALID,0,
2011-08-01, 03:17:05,VALID,1003.83,VALID,0,INVALID,163.838,VALID,0,VALID,23.6434,VALID,2,VALID,0,
2011-08-01, 03:18:05,VALID,1003.8,VALID,0,INVALID,163.769,VALID,0,VALID,23.6416,VALID,2,VALID,0,
2011-08-01, 03:19:05,VALID,1003.8,VALID,0,INVALID,163.807,VALID,0.100563,VALID,23.6434,VALID,2,VALID,0,
2011-08-01, 03:20:05,VALID,1003.8,VALID,0,INVALID,163.723,VALID,0.100563,VALID,23.6434,VALID,2,VALID,0,
2011-08-01, 03:21:05,VALID,1003.78,VALID,0,INVALID,163.784,VALID,0.100563,VALID,23.6239,VALID,2,VALID,0,
2011-08-01, 03:22:05,VALID,1003.76,VALID,0,INVALID,163.784,VALID,0.100563,VALID,23.6026,VALID,360,VALID,0,
2011-08-01, 03:23:05,VALID,1003.77,VALID,0,INVALID,163.762,VALID,0.100563,VALID,23.6044,VALID,360,VALID,0,
2011-08-01, 03:24:05,VALID,1003.79,VALID,0,INVALID,163.762,VALID,0.100563,VALID,23.6239,VALID,360,VALID,0,
2011-08-01, 03:25:05,VALID,1003.77,VALID,0,INVALID,163.762,VALID,0.100563,VALID,23.6239,VALID,360,VALID,0,
2011-08-01, 03:26:05,VALID,1003.76,VALID,0,INVALID,163.762,VALID,0.100563,VALID,23.6026,VALID,360,VALID,0,
2011-08-01, 03:27:05,VALID,1003.71,VALID,0,INVALID,163.746,VALID,0.100563,VALID,23.6239,VALID,360,VALID,0,
2011-08-01, 03:28:05,VALID,1003.66,VALID,0,INVALID,163.769,VALID,0,VALID,23.5637,VALID,360,VALID,0,
2011-08-01, 03:29:05,VALID,1003.63,VALID,0,INVALID,163.845,VALID,0.100563,VALID,23.5655,VALID,360,VALID,0,
2011-08-01, 03:30:05,VALID,1003.62,VALID,0,INVALID,163.838,VALID,0.100563,VALID,23.546,VALID,360,VALID,0,
2011-08-01, 03:31:05,VALID,1003.59,VALID,0,INVALID,163.83,VALID,0.100563,VALID,23.5248,VALID,360,VALID,0,
2011-08-01, 03:32:05,VALID,1003.57,VALID,0,INVALID,163.769,VALID,0.100563,VALID,23.5266,VALID,360,VALID,0,
2011-08-01, 03:33:05,VALID,1003.57,VALID,0,INVALID,163.754,VALID,0,VALID,23.5071,VALID,360,VALID,0,
2011-08-01, 03:34:05,VALID,1003.59,VALID,0,INVALID,163.823,VALID,0.100563,VALID,23.5284,VALID,360,VALID,0,
2011-08-01, 03:35:05,VALID,1003.55,VALID,0,INVALID,163.769,VALID,0.100563,VALID,23.4877,VALID,360,VALID,0,
2011-08-01, 03:36:05,VALID,1003.58,VALID,0,INVALID,163.769,VALID,0.100563,VALID,23.4877,VALID,360,VALID,0,
2011-08-01, 03:37:05,VALID,1003.56,VALID,0,INVALID,163.861,VALID,0,VALID,23.4682,VALID,360,VALID,0,
2011-08-01, 03:38:05,VALID,1003.55,VALID,0,INVALID,163.8,VALID,0.100563,VALID,23.4487,VALID,360,VALID,0,
2011-08-01, 03:39:05,VALID,1003.54,VALID,0,INVALID,163.83,VALID,0,VALID,23.4487,VALID,360,VALID,0,
2011-08-01, 03:40:05,VALID,1003.55,VALID,0,INVALID,163.777,VALID,0.100563,VALID,23.4487,VALID,360,VALID,0,
2011-08-01, 03:41:05,VALID,1003.55,VALID,0,INVALID,163.784,VALID,0.100563,VALID,23.4293,VALID,360,VALID,0,
2011-08-01, 03:42:05,VALID,1003.54,VALID,0,INVALID,163.777,VALID,0.100563,VALID,23.4293,VALID,360,VALID,0,
2011-08-01, 03:43:05,VALID,1003.52,VALID,0,INVALID,163.792,VALID,0,VALID,23.408,VALID,360,VALID,0,
2011-08-01, 03:44:05,VALID,1003.55,VALID,0,INVALID,163.769,VALID,0.100563,VALID,23.4098,VALID,360,VALID,0,
2011-08-01, 03:45:05,VALID,1003.5,VALID,0,INVALID,163.769,VALID,0,VALID,23.4311,VALID,360,VALID,0,
2011-08-01, 03:46:05,VALID,1003.5,VALID,0,INVALID,163.777,VALID,0,VALID,23.3904,VALID,360,VALID,0,
2011-08-01, 03:47:05,VALID,1003.47,VALID,0,INVALID,163.83,VALID,0,VALID,23.3709,VALID,360,VALID,0,
2011-08-01, 03:48:05,VALID,1003.43,VALID,0,INVALID,163.853,VALID,0.100563,VALID,23.3514,VALID,360,VALID,0,
2011-08-01, 03:49:05,VALID,1003.43,VALID,0,INVALID,163.777,VALID,0.100563,VALID,23.3125,VALID,360,VALID,0,
2011-08-01, 03:50:05,VALID,1003.46,VALID,0,INVALID,163.8,VALID,0,VALID,23.2736,VALID,360,VALID,0,
2011-08-01, 03:51:05,VALID,1003.45,VALID,0,INVALID,163.823,VALID,0,VALID,23.2541,VALID,360,VALID,0,
2011-08-01, 03:52:05,VALID,1003.46,VALID,0,INVALID,163.868,VALID,0.100563,VALID,23.2541,VALID,360,VALID,0,